Regional Weather Roundup
Issued by NWS Grand Forks, ND

Current Version | Previous Version | Text Only | Print | Product List | Glossary On
Versions: 1 2 3 4 5 6 7 8 9 10 11 12 13 14 15 16 17 18 19 20 21 22 23 24 25 26 27 28 29 30 31 32 33 34 35 36 37 38 39 40 41 42 43 44 45 46 47 48 49 50
000
ASUS43 KFGF 291010
RWRFGF
PRAIRIE TO PINES  WEATHER ROUNDUP
NATIONAL WEATHER SERVICE EASTERN NORTH DAKOTA/GRAND FORKS ND
500 AM CDT SAT APR 29 2017

 **SATELLITE DATA USED TO AUGMENT SKY COVER AT AUTOMATED STATIONS**
 *****  WEATHER ACROSS EASTERN NORTH DAKOTA  *****

CITY           SKY/WX    TMP DP  RH WIND       PRES   REMARKS
GRAND FORKS    FAIR      31  25  78 CALM      30.25R
GRAND FRKS AFB FAIR      28  25  88 NW3       30.25R
DEVILS LAKE    FAIR      29  27  92 CALM      30.24S
FARGO          FAIR      26  23  88 CALM      30.24S
WAHPETON ARPT  FAIR      28  25  86 CALM      30.24S
$$

 ***** WEATHER ACROSS CENTRAL AND WESTERN NORTH DAKOTA  *****

CITY           SKY/WX    TMP DP  RH WIND       PRES   REMARKS
BISMARCK       FAIR      30  22  72 CALM      30.24R
MINOT          FAIR      37  25  61 SW8       30.19R
JAMESTOWN      FAIR      30  27  88 CALM      30.23R
MINOT AFB      FAIR      39  23  53 SW7       30.18R
GARRISON         N/A     29  24  82 CALM      30.20S
WILLISTON      FAIR      36  26  67 S3        30.17S
DICKINSON      FAIR      29  19  66 S5        30.18S WCI  24
HETTINGER      FAIR      28  22  78 NW3       30.23R
$$

 *****  OTHER AIRPORT OBSERVATIONS IN OUR AREA  *****

CITY           SKY/WX    TMP DP  RH WIND       PRES   REMARKS
WALHALLA       NOT AVBL
GRAFTON AIRPOR FAIR      32  27  80 W3        30.27R
VALLEY CITY AR FAIR      27  27 100 N5        30.24S WCI  21
CANDO          NOT AVBL
CAVALIER APRT  FAIR      27  23  86 CALM      30.25R
GWINNER        SUNNY     36  23  60 MISG      30.23S
SHEYENNE NWR     N/A     23  20  90 CALM      29.95S
ROLLA          FAIR      30  19  64 S6        30.23R WCI  24
 ***** THE ABOVE OBSERVATIONS ARE NON NWS ARE NOT QUALITY
       CONTROLLED AND MAY MIS-REPORT RAIN FOR SNOW...
$$

  *****  WEATHER ACROSS NORTHERN MINNESOTA  *****

CITY           SKY/WX    TMP DP  RH WIND       PRES   REMARKS
FLAG ISLAND    FAIR      34  27  75 N5        30.24S
WARROAD        FAIR      28  19  69 CALM      30.24S
ROSEAU         FAIR      28  19  69 CALM      30.24S
HALLOCK        FAIR      27  25  93 CALM      30.25R
THF RVR FALLS  FAIR      29  19  66 CALM      30.25R
BAUDETTE       FAIR      26  20  77 CALM      30.22S
WASKISH        FAIR      27  25  93 CALM      30.23R
CROOKSTON      FAIR      30  27  86 SW3       30.26R
STEPHEN NDAWN    N/A     27  25  93 CALM        N/A
GREENBUSH NDAW   N/A     28  25  86 NE1         N/A
$$
  *****  WEATHER ACROSS CENTRAL AND WEST MINNESOTA  *****

CITY           SKY/WX    TMP DP  RH WIND       PRES   REMARKS
FOSSTON        FAIR      19  16  86 CALM      30.24R
BEMIDJI        FAIR      21  18  88 CALM      30.23R
PARK RAPIDS    FAIR      25  18  74 NW3       30.22R
ELBOW LAKE     FAIR      32  27  80 CALM      30.23S
WADENA         FAIR      25  21  86 N3        30.22F
DETROIT LAKES  FAIR      30  27  86 CALM      30.24S
MOORHEAD       FAIR      28  25  86 CALM      30.25R
FERGUS FALLS   FAIR      34  21  60 E5        30.24R
MORRIS MN      FAIR      28  23  80 NE6       30.20F WCI  22
STAPLES        FAIR      27  23  86 N3        30.22F
$$
  *****  WEATHER ELSEWHERE ACROSS MINNESOTA  *****

CITY           SKY/WX    TMP DP  RH WIND       PRES   REMARKS
DULUTH         FAIR      27  23  85 N6        30.20F WCI  20
INTRNTL FALLS  FAIR      21  17  84 CALM      30.24R
ELY            FAIR      21  21 100 CALM      30.24R
CLOQUET        FAIR      25  21  86 N7        30.20F WCI  17
WHEATON        FAIR      30  27  86 NW3       30.24F
BRAINERD       FAIR      26  25  96 CALM      30.22S
HIBBING        FAIR      20  20 100 CALM      30.22R
ALEXANDRIA     FAIR      34  20  56 NE5       30.22S
SAINT CLOUD    FAIR      33  25  72 CALM      30.21R
MINNEAPOLIS    CLOUDY    39  25  57 NE12      30.18F
$$

  *****  WEATHER ACROSS SOUTH DAKOTA  *****

CITY           SKY/WX    TMP DP  RH WIND       PRES   REMARKS
SIOUX FALLS    FAIR      38  25  59 N10       30.17R
BROOKINGS      FAIR      33  22  63 N8        30.17F
WATERTOWN      FAIR      23  18  81 N6        30.20R WCI  16
HURON          FAIR      25  20  81 CALM      30.20F
SISSETON         N/A     26  22  84 NW5       30.22S WCI  20
ABERDEEN       FAIR      27  21  78 CALM      30.24R
MITCHELL       FAIR      32  24  72 N6        30.18S
PIERRE         FAIR      29  22  75 NW6       30.21R WCI  23
MOBRIDGE       FAIR      25  16  68 N3        30.20S
RAPID CITY     FAIR      27  21  78 NW8       30.21R WCI  19
$$

  *****  SOME WEATHER IN NEARBY STATES *****

CITY           SKY/WX    TMP DP  RH WIND       PRES   REMARKS
GLASGOW MT     FAIR      38  33  82 CALM      30.19R
GREAT FALLS MT FAIR      34  29  82 CALM      30.16F
CHEYENNE WY    CLOUDY    27  24  89 NE12      30.08S WCI  17
SCOTTSBLUFF NE CLOUDY    33  27  78 N8        30.15R
OMAHA NE       CLOUDY    44  34  67 NE9       30.08R
DES MOINES IA  CLOUDY    45  34  65 NE17      30.02F
DAVENPORT IA   CLOUDY    46  41  82 NE17      30.09R
CHICAGO IL     CLOUDY    46  37  71 NE16G25   30.07S
EAU CLAIRE WI  FAIR      34  26  72 NE6       30.21R
LA CROSSE WI   FAIR      41  30  65 NE10      30.19R
$$

  *****  SOME NATIONAL WEATHER *****

CITY           SKY/WX    TMP DP  RH WIND       PRES   REMARKS
LA GUARDIA NY  TSTM      69  63  81 S9        29.96F
RALEIGH NC     FAIR      73  69  87 SW9       30.17R
ATLANTA GA     FAIR      71  66  84 S3        30.08R
NEW ORLEANS LA MOCLDY    78  74  87 SE16G24   29.90S
OKLAHOMA CITY  LGT RAIN  57  56  96 NE29G35   29.48F
ALBUQUERQUE NM CLOUDY    37  33  85 S5        29.84R
SALT LAKE CITY MOCLDY    42  24  49 NE10      30.07R
LOS ANGELES CA FAIR      69  13  11 NE7       29.89R
BOISE ID       FAIR      39  30  70 CALM      30.19R
SEATTLE WA     MOCLDY    47  42  83 SE7       30.31S
$$

*** WEATHER ACROSS MANITOBA...SASKATCHEWAN AND ONTARIO ***
                ***ONTARIO***

CITY           SKY/WX    TMP DP  RH WIND       PRES   REMARKS
GERALDTON      PTCLDY    25  16  68 NW8       30.13R WCI  16
THUNDER BAY    PTCLDY    23  23 100 W5        30.23R WCI  17
SIOUX LOOKOUT  PTCLDY    14  12  92 CALM      30.23R
TORONTO        MOCLDY    45  34  65 N17G24    30.01R
BIG TROUT LK     N/A     25  21  86 N10       30.20R WCI  15
PICKLE LAKE    NOT AVBL
DRYDEN         CLEAR     25  23  93 VRB2      30.23R
KENORA         PTCLDY    30  12  47 NE6       30.24R WCI  24
$$
                *** MANITOBA***

CITY           SKY/WX    TMP DP  RH WIND       PRES   REMARKS
BRANDON        CLEAR     25  16  68 E9        30.22S WCI  15
DAUPHIN        MOCLDY    25  19  80 S2        30.21S
ISLAND LAKE    MOCLDY    27  16  63 NE6       30.26R WCI  20
PILOT MOUND      N/A     28  21  74 S5          N/A  WCI  23
THE PAS        PTCLDY    25  16  68 SE5       30.20R WCI  19
THOMPSON       CLOUDY    23  16  74 NE7       30.30R WCI  15
WINNIPEG       CLEAR     27  16  63 CALM      30.26R
LYNN LAKE      PTCLDY    27  25  93 SE8       30.24R WCI  18
CHURCHILL      FLURRIES  14  12  92 NW12      30.37R WCI   0
GILLAM         CLOUDY    16  12  86 NE6       30.35R WCI   7
$$
                ***SASKATCHEWAN***

CITY           SKY/WX    TMP DP  RH WIND       PRES   REMARKS
ESTEVAN        PTCLDY    32  30  93 NW6       30.18R
KINDERSLEY     PTCLDY    25  25 100 SW2       30.14R
LLOYDMINSTER   MOCLDY    32  25  74 W6        30.11S
PRINCE ALBERT  MOCLDY    37  32  81 NE6       30.10R
REGINA         PTCLDY    32  32 100 S9        30.15F WCI  24
YORKTON        CLOUDY    39  27  60 S6        30.14R
N. BATTLEFORD  PTCLDY    30 N/A N/A SW2       30.13S
LA RONGE       MOCLDY    28  21  74 NE5       30.13R WCI  23
SASKATOON      CLOUDY    32  30  93 SW5       30.11R
SWIFT CURRENT  CLEAR     28  25  86 W8        30.14R WCI  20
$$
NOTE: THESE ARE AUTOMATED STATIONS WITH LIMITED QUALITY CONTROL
      "FAIR" INDICATES FEW OR NO CLOUDS BELOW 12,000 FEET WITH NO
      SIGNIFICANT WEATHER AND/OR OBSTRUCTIONS TO VISIBILITY.
      SKY/WX - SKY CONDITION AND SIGNIFICANT WEATHER.
      TMP - AIR TEMPERATURE.    DP   - DEWPOINT TEMPERATURE.
      RH  - RELATIVE HUMIDITY.  PRES - PRESSURE.
      HX  - HEAT INDEX.         WCI  - WIND CHILL INDEX.
$




USA.gov is the U.S. government's official web portal to all federal, state and local government web resources and services.